Regional Weather Roundup
Issued by NWS

Home | Current Version | Previous Version | Graphics & Text | Print | Product List | Glossary On
Versions: 1 2 3 4 5 6 7 8 9 10 11 12 13 14 15 16 17 18 19 20 21 22 23 24 25 26 27 28 29 30 31 32 33 34 35 36 37 38 39 40 41 42 43 44 45 46 47 48 49 50
000
ASUS43 KMPX 272001
RWRMN
WEATHER ROUNDUP FOR MINNESOTA
NATIONAL WEATHER SERVICE TWIN CITIES/CHANHASSEN MN
300 PM CDT THU AUG 27 2015


NOTE: "FAIR" INDICATES FEW OR NO CLOUDS BELOW 12,000 FEET WITH NO
SIGNIFICANT WEATHER AND/OR OBSTRUCTIONS TO VISIBILITY. N/A MEANS
CURRENT SKY AND/OR WEATHER CONDITIONS ARE NOT AVAILABLE.

MNZ060>063-068>070-272100-
   Twin Cities Metro

CITY           SKY/WX    TMP DP  RH WIND       PRES   REMARKS
TWIN CITIES    CLOUDY    74  60  61 S10       30.03F
ST PAUL        CLOUDY    74  60  61 SE12      30.03F
CRYSTAL        CLOUDY    77  60  55 S12       30.01F
BLAINE         PTSUNNY   75  61  60 S12       30.02F
LAKEVILLE      CLOUDY    72  61  68 S7        30.03S
EDEN PRAIRIE   CLOUDY    75  60  59 S14       30.02S
SOUTH ST PAUL  CLOUDY    74  58  58 SE8       30.03F
LAKE ELMO      FAIR      72  61  68 SE8       30.04F
$$
MNZ001>005-007-008-013>017-022>024-027-028-272100-
   Northwest Minnesota

CITY           SKY/WX    TMP DP  RH WIND       PRES   REMARKS
BEMIDJI        PTSUNNY   75  62  63 S7        29.98S
HALLOCK        SUNNY     79  61  53 S8        29.93S
ROSEAU         SUNNY     77  61  57 S7        29.95S
WARROAD        SUNNY     70  63  78 E7        29.96S
THIEF RVR FALL MOSUNNY  N/A N/A N/A SE9       29.95F
CROOKSTON      PTSUNNY   77  63  61 SW8       29.95S
FOSSTON        PTSUNNY   77  61  57 S7        29.97S
DETROIT LAKES  PTSUNNY   73  63  68 S7        29.99S
MOORHEAD       PTSUNNY   77  64  65 SW3       29.95F
PARK RAPIDS    PTSUNNY   77  62  59 S8        29.98S
MAHNOMEN       FAIR      76  64  67 S6        29.96F
$$
MNZ006-009>011-018-025>026-272100-
   North Central Minnesota

CITY           SKY/WX    TMP DP  RH WIND       PRES   REMARKS
BAUDETTE       SUNNY     76  56  49 S10       29.96F
FLAG ISLAND    SUNNY     68  57  68 S5        29.95S
INTL FALLS     SUNNY     75  56  51 CALM      29.97F
WASKISH        MOSUNNY   75  63  64 W3        29.98R
BIG FORK       SUNNY     77  57  50 S8        30.00S
LONGVILLE      PTSUNNY   75  63  64 S12       29.99S
GRAND RAPIDS     N/A     73  57  56 S12G18    30.01S
CRANE LAKE     SUNNY     73  54  49 S6        30.01F
ORR            SUNNY     75  54  46 S8        29.98F
COOK           SUNNY     73  55  53 S9        30.01F
WALKER         FAIR      73  61  65 SE8       29.98S
$$
MNZ012-019>021-037-272100-
   Northeast Minnesota

CITY           SKY/WX    TMP DP  RH WIND       PRES   REMARKS
DULUTH         PTSUNNY   72  57  59 S13       30.04F
ELY            SUNNY     73  52  46 S9        30.01F
HIBBING        MOSUNNY   74  56  53 VRB7      30.01F
EVELETH        PTSUNNY   72  55  56 S9        30.03F
DULUTH HARBOR  PTSUNNY   61  54  77 E6        30.04F
TWO HARBORS    SUNNY     75  61  60 SW8       30.02F
SILVER BAY     SUNNY     72  55  56 S9        30.03F
GRAND MARAIS     N/A     61  54  77 CALM      30.05F
G MARAIS ARPRT SUNNY     66  45  45 S9        30.08F
$$
MNZ029>031-032-039>041-046>048-054>057-064-272100-
   West Central Minnesota

CITY           SKY/WX    TMP DP  RH WIND       PRES   REMARKS
FERGUS FALLS   CLOUDY    73  64  73 SE6       29.95F
WHEATON        PTSUNNY   73  64  73 SE6       29.96F
MORRIS         MOSUNNY   75  64  69 S9        29.96F
ALEXANDRIA     PTSUNNY   74  64  71 S10       30.00R
ELBOW LAKE     FAIR      74  65  73 SE5       29.97S
WADENA         PTSUNNY   73  63  68 SE6       29.97F
GLENWOOD       PTSUNNY   73  63  68 S9        30.00F
APPLETON       MOSUNNY   75  63  64 S10       29.96F
BENSON         MOSUNNY   75  63  64 S10       29.98F
ORTONVILLE     MOSUNNY   73  63  68 SE7       29.96S
MADISON        PTSUNNY   73  64  73 S8        29.97S
WILLMAR        FAIR      72  63  73 S8        30.01R
$$
MNZ033>034-036-042>043-049>051-058-059-272100-
   Central Minnesota

CITY           SKY/WX    TMP DP  RH WIND       PRES   REMARKS
ST CLOUD       PTSUNNY   74  61  63 S15G23    30.00S
SAUK CENTRE    FAIR      71  62  71 S8G16     30.00R
PAYNESVILLE    PTSUNNY   74  62  64 SE10G18   30.00F
AITKIN         PTSUNNY   73  61  64 SE6       30.00F
PINE RIVER     PTSUNNY   73  63  68 SE7       30.01F
BRAINERD       PTSUNNY   75  61  61 S10       29.99F
STAPLES        PTSUNNY   75  63  64 S6        29.98F
LONG PRAIRIE   FAIR      72  63  73 SE9       30.00S
LITTLE FALLS   PTSUNNY   77  61  57 SE10      29.99S
LITCHFIELD     CLOUDY    75  64  69 SE6       30.00F
BUFFALO        PTSUNNY   73  59  61 S6        30.03R
MAPLE LAKE     PTSUNNY   74  65  72 S3        30.02S
$$
MNZ037-044-045-052-053-272100-
   East Central Minnesota

CITY           SKY/WX    TMP DP  RH WIND       PRES   REMARKS
PRINCETON      PTSUNNY   79  61  53 S12       30.01S
MORA           PTSUNNY   73  57  56 S10       30.03F
CAMBRIDGE      PTSUNNY   79  61  53 SE9       30.00F
RUSH CITY      PTSUNNY   74  60  62 S9        30.02F
MOOSE LAKE     PTSUNNY   73  57  56 S7        30.01F
HINCKLEY       FAIR      73  61  64 SE10      30.03F
CLOQUET        MOSUNNY   72  54  53 SE12      30.03F
MCGREGOR       MOSUNNY   73  61  64 S10       30.02S
$$
MNZ071>073-080-081-089-090-097-098-272100-
   Southwest Minnesota

CITY           SKY/WX    TMP DP  RH WIND       PRES   REMARKS
MONTEVIDEO     MOSUNNY   75  64  69 S3        30.00S
GRANITE FALLS  CLOUDY    68  63  84 SW7       30.02R
CANBY          CLOUDY    74  66  76 S7        29.99R
MARSHALL       CLOUDY    70  61  73 S16       30.01S
REDWOOD FALLS  LGT RAIN  65  62  90 S20       30.02R
OLIVIA         CLOUDY    64  59  82 S12       30.00S
PIPESTONE      CLOUDY    77  66  69 E10       30.03S
WINDOM         CLOUDY    68  63  83 NE7       30.05R THUNDER
WORTHINGTON    CLOUDY    72  63  73 SE3       30.04R
JACKSON        CLOUDY    70  63  78 SW5       30.07R
TRACY          CLOUDY    66  64  94 S12       30.05F
SLAYTON        CLOUDY    68  64  89 N6        30.06R
$$
MNZ065>067-074>077-082>085-091>093-272100-
   South Central Minnesota

CITY           SKY/WX    TMP DP  RH WIND       PRES   REMARKS
MANKATO        CLOUDY    70  57  64 S10G17    30.04F
NEW ULM        RAIN      64  63  94 SW5       30.06R
ST JAMES       CLOUDY    70  63  78 S5        30.06R
FAIRMONT       CLOUDY    68  55  64 S3        30.06R
GLENCOE        LGT RAIN  73  64  72 CALM      30.01S
FARIBAULT      CLOUDY    73  61  64 S12       30.05R
OWATONNA       CLOUDY    73  59  60 S10G17    30.06R
WASECA         CLOUDY    72  59  64 S9        30.06S
ALBERT LEA     CLOUDY    70  57  64 SE10      30.03F
$$
MNZ078>079-086>088-094>096-272100-
   Southeast Minnesota

CITY           SKY/WX    TMP DP  RH WIND       PRES   REMARKS
ROCHESTER      PTSUNNY   71  59  65 S12       30.07F
RED WING       CLOUDY    75  57  53 SE8       30.03F
STANTON        CLOUDY    74  59  58 S7        30.03S
DODGE CENTER   CLOUDY    72  57  60 S10       30.06F
WINONA         CLOUDY    75  57  53 CALM      30.07F
AUSTIN         CLOUDY    73  57  56 S9        30.05F
PRESTON        PTSUNNY   73  56  54 S13       30.07F
$$
ABBREVIATIONS USED IN REMARKS
   TC - TEMPERATURES IN CELSIUS
  WCI - WIND CHILL INDEX
   HX - HEAT INDEX
  VSB - VISIBILITY
$$


USA.gov is the U.S. government's official web portal to all federal, state and local government web resources and services.